Location: Leeds
(37.2390°N, 113.3580°W)
Time: 03:32:58
(UTC-06:00)

SL-08 RB Rocket - Visible Passes

Search period start: 26 April 2018 00:00
Search period end: 06 May 2018 00:00
Orbit: 647 x 686 km, 97.9° (Epoch: 25 April)

Date Brightness Start Highest point End Pass type
(mag) Time Alt. Az. Time Alt. Az. Time Alt. Az.
26 Apr 4.5 21:57:29 30° E 21:58:00 31° ENE 22:01:55 10° N visible
26 Apr 5.8 23:35:36 21° W 23:35:36 21° W 23:38:28 10° NW visible
27 Apr 3.5 22:29:17 69° E 22:29:24 70° ENE 22:33:51 10° N visible
28 Apr 5.6 21:22:59 12° E 21:24:21 14° ENE 21:26:38 10° NE visible
28 Apr 4.3 23:01:06 50° W 23:01:06 50° W 23:05:18 10° NNW visible
29 Apr 4.6 21:54:47 27° E 21:55:35 29° ENE 21:59:27 10° N visible
29 Apr 5.6 23:32:54 22° W 23:32:54 22° W 23:36:07 10° NW visible
30 Apr 3.6 22:26:36 62° ESE 22:26:58 65° ENE 22:31:24 10° N visible
01 May 5.6 21:20:17 11° E 21:21:57 13° ENE 21:24:02 10° NE visible
01 May 4.1 22:58:24 54° WSW 22:58:30 54° W 23:02:53 10° NNW visible
02 May 4.7 21:52:06 25° E 21:53:10 28° ENE 21:56:57 10° NNE visible
02 May 5.5 23:30:13 24° W 23:30:13 24° W 23:33:46 10° NW visible
03 May 3.7 22:23:54 55° ESE 22:24:32 62° ENE 22:28:58 10° N visible
04 May 6.4 00:02:02 10° W 00:02:02 10° W 00:02:41 10° W visible
04 May 5.7 21:17:40 10° E 21:19:33 12° ENE 21:21:25 10° NE visible
04 May 4.0 22:55:43 55° WSW 22:56:03 57° W 23:00:27 10° NNW visible
05 May 4.8 21:49:24 22° E 21:50:45 26° ENE 21:54:28 10° NNE visible
05 May 5.4 23:27:32 25° W 23:27:42 25° W 23:31:24 10° NW visible
